When you browse on this site, cookies collect data to enhance your experience and personalize the content and advertising you see.
Visit our Privacy Policy to learn more. By continuing to use the site, you agree to this use of cookies and data.
  • en Suisse
  • Liste des pays
  • À 7 jours
  • Température de l'eau
  • Carte satellitaire
  • Carte météo
  • Widgets météo
  • user-avatar
    Se connecter

    Météo par heure à Rakovo

    Ce jour, 21 Février, Jeudi

    Heure Température Précipitation Vent Pression Humidité
    00:00 -1°C° 0.1 mm 4 m/s 743 mmHg 92%
    01:00 -1°C° 0 mm 4 m/s 742 mmHg 93%
    02:00 -1°C° 0 mm 4 m/s 742 mmHg 93%
    03:00 -1°C° 0 mm 5 m/s 741 mmHg 93%
    04:00 -1°C° 0.1 mm 5 m/s 740 mmHg 93%
    05:00 -1°C° 0.1 mm 5 m/s 740 mmHg 93%
    06:00 -1°C° 0.1 mm 5 m/s 739 mmHg 93%
    07:00 -1°C° 0.2 mm 5 m/s 739 mmHg 92%
    08:00 -1°C° 0.2 mm 5 m/s 739 mmHg 91%
    09:00 -1°C° 0.2 mm 5 m/s 738 mmHg 90%
    10:00 -1°C° 0.4 mm 5 m/s 738 mmHg 91%
    11:00 -1°C° 0.4 mm 5 m/s 738 mmHg 92%
    12:00 -1°C° 0.4 mm 4 m/s 738 mmHg 93%
    13:00 -1°C° 0.2 mm 4 m/s 738 mmHg 93%
    14:00 -1°C° 0.2 mm 4 m/s 738 mmHg 93%
    15:00 -1°C° 0.2 mm 4 m/s 738 mmHg 92%
    16:00 -2°C° 0.3 mm 4 m/s 738 mmHg 92%
    17:00 -3°C° 0.3 mm 4 m/s 738 mmHg 92%
    18:00 -4°C° 0.3 mm 4 m/s 738 mmHg 92%
    19:00 -4°C° 0.3 mm 4 m/s 738 mmHg 92%
    20:00 -5°C° 0.3 mm 4 m/s 738 mmHg 92%
    21:00 -6°C° 0.3 mm 5 m/s 738 mmHg 92%
    22:00 -7°C° 0.4 mm 5 m/s 738 mmHg 92%
    23:00 -7°C° 0.4 mm 5 m/s 738 mmHg 93%

    Demain, 22 Février, Vendredi

    Heure Température Précipitation Vent Pression Humidité
    00:00 -8°C° 0.4 mm 4 m/s 738 mmHg 93%
    01:00 -8°C° 0.3 mm 5 m/s 738 mmHg 92%
    02:00 -8°C° 0.3 mm 5 m/s 739 mmHg 91%
    03:00 -9°C° 0.3 mm 6 m/s 739 mmHg 90%
    04:00 -9°C° 0.2 mm 6 m/s 739 mmHg 89%
    05:00 -10°C° 0.2 mm 6 m/s 740 mmHg 89%
    06:00 -11°C° 0.2 mm 6 m/s 740 mmHg 89%
    07:00 -11°C° 0.1 mm 6 m/s 741 mmHg 88%
    08:00 -11°C° 0.1 mm 6 m/s 741 mmHg 87%
    09:00 -11°C° 0.1 mm 6 m/s 742 mmHg 87%
    10:00 -11°C° 0.1 mm 6 m/s 743 mmHg 86%
    11:00 -10°C° 0.1 mm 6 m/s 744 mmHg 86%
    12:00 -10°C° 0.1 mm 6 m/s 744 mmHg 86%
    13:00 -10°C° 0.1 mm 6 m/s 745 mmHg 85%
    14:00 -10°C° 0.1 mm 6 m/s 746 mmHg 85%
    15:00 -10°C° 0.1 mm 6 m/s 747 mmHg 85%
    16:00 -10°C° 0.1 mm 6 m/s 748 mmHg 85%
    17:00 -11°C° 0.1 mm 5 m/s 749 mmHg 86%
    18:00 -11°C° 0.1 mm 5 m/s 750 mmHg 87%
    19:00 -11°C° 0 mm 5 m/s 751 mmHg 87%
    20:00 -12°C° 0 mm 5 m/s 751 mmHg 87%
    21:00 -12°C° 0 mm 5 m/s 752 mmHg 88%
    22:00 -12°C° 0 mm 5 m/s 753 mmHg 88%
    23:00 -11°C° 0 mm 4 m/s 754 mmHg 88%

    Après-demain, 23 Février, Samedi

    Heure Température Précipitation Vent Pression Humidité
    00:00 -11°C° 0 mm 4 m/s 755 mmHg 88%
    01:00 -12°C° 0 mm 4 m/s 756 mmHg 88%
    02:00 -12°C° 0 mm 4 m/s 756 mmHg 89%
    03:00 -12°C° 0 mm 4 m/s 757 mmHg 89%
    04:00 -12°C° 0 mm 4 m/s 758 mmHg 90%
    05:00 -14°C° 0 mm 4 m/s 758 mmHg 90%
    06:00 -14°C° 0 mm 4 m/s 759 mmHg 90%
    07:00 -14°C° 0 mm 4 m/s 760 mmHg 90%
    08:00 -14°C° 0 mm 4 m/s 761 mmHg 90%
    09:00 -14°C° 0 mm 3 m/s 761 mmHg 89%
    10:00 -13°C° 0 mm 3 m/s 762 mmHg 88%
    11:00 -13°C° 0 mm 3 m/s 762 mmHg 87%
    12:00 -10°C° 0 mm 2 m/s 762 mmHg 85%
    13:00 -12°C° 0 mm 3 m/s 763 mmHg 85%
    14:00 -12°C° 0 mm 3 m/s 763 mmHg 85%
    15:00 -12°C° 0 mm 3 m/s 763 mmHg 85%
    16:00 -10°C° 0 mm 2 m/s 763 mmHg 87%
    17:00 -10°C° 0 mm 2 m/s 763 mmHg 89%
    18:00 -12°C° 0 mm 2 m/s 763 mmHg 91%
    19:00 -10°C° 0 mm 1 m/s 763 mmHg 92%
    20:00 -10°C° 0 mm 1 m/s 764 mmHg 92%
    21:00 -10°C° 0 mm 1 m/s 764 mmHg 93%
    22:00 -11°C° 0 mm 1 m/s 764 mmHg 93%
    23:00 -13°C° 0 mm 2 m/s 764 mmHg 94%

    24 Février, Dimanche

    Heure Température Précipitation Vent Pression Humidité
    00:00 -14°C° 0 mm 2 m/s 763 mmHg 94%
    01:00 -15°C° 0 mm 2 m/s 763 mmHg 94%
    02:00 -15°C° 0 mm 2 m/s 763 mmHg 94%
    03:00 -15°C° 0 mm 2 m/s 763 mmHg 94%
    04:00 -16°C° 0 mm 2 m/s 762 mmHg 93%
    05:00 -16°C° 0 mm 2 m/s 762 mmHg 93%
    06:00 -17°C° 0 mm 3 m/s 762 mmHg 92%
    07:00 -17°C° 0 mm 3 m/s 762 mmHg 89%
    08:00 -16°C° 0 mm 3 m/s 762 mmHg 87%
    09:00 -15°C° 0 mm 3 m/s 762 mmHg 85%
    10:00 -14°C° 0 mm 3 m/s 762 mmHg 83%
    11:00 -14°C° 0 mm 4 m/s 762 mmHg 82%
    12:00 -11°C° 0 mm 4 m/s 761 mmHg 80%
    13:00 -11°C° 0 mm 4 m/s 761 mmHg 83%
    14:00 -10°C° 0 mm 4 m/s 761 mmHg 85%
    15:00 -9°C° 0 mm 4 m/s 761 mmHg 87%
    16:00 -9°C° 0 mm 4 m/s 761 mmHg 89%
    17:00 -9°C° 0 mm 4 m/s 760 mmHg 90%
    18:00 -8°C° 0 mm 3 m/s 760 mmHg 92%
    19:00 -8°C° 0 mm 3 m/s 760 mmHg 93%
    20:00 -8°C° 0 mm 3 m/s 760 mmHg 93%
    21:00 -7°C° 0 mm 3 m/s 760 mmHg 94%
    22:00 -7°C° 0.1 mm 3 m/s 759 mmHg 94%
    23:00 -7°C° 0.1 mm 3 m/s 759 mmHg 94%

    25 Février, Lundi

    Heure Température Précipitation Vent Pression Humidité
    00:00 -6°C° 0.1 mm 3 m/s 759 mmHg 95%
    01:00 -6°C° 0.1 mm 3 m/s 758 mmHg 95%
    02:00 -7°C° 0.1 mm 4 m/s 758 mmHg 95%
    03:00 -5°C° 0.1 mm 4 m/s 758 mmHg 95%
    04:00 -5°C° 0.1 mm 4 m/s 757 mmHg 95%
    05:00 -5°C° 0.1 mm 4 m/s 756 mmHg 95%
    06:00 -4°C° 0.1 mm 4 m/s 755 mmHg 95%
    07:00 -4°C° 0 mm 4 m/s 755 mmHg 94%
    08:00 -4°C° 0 mm 5 m/s 754 mmHg 93%
    09:00 -4°C° 0 mm 5 m/s 753 mmHg 92%
    10:00 -3°C° 0.4 mm 6 m/s 752 mmHg 91%
    11:00 -3°C° 0.4 mm 6 m/s 751 mmHg 91%
    12:00 -2°C° 0.4 mm 7 m/s 750 mmHg 90%
    13:00 -2°C° 0.4 mm 6 m/s 749 mmHg 91%
    14:00 -2°C° 0.4 mm 6 m/s 748 mmHg 92%
    15:00 -1°C° 0.4 mm 6 m/s 747 mmHg 94%
    16:00 -2°C° 0.3 mm 6 m/s 747 mmHg 91%
    17:00 -2°C° 0.3 mm 6 m/s 747 mmHg 88%
    18:00 -2°C° 0.3 mm 6 m/s 746 mmHg 85%
    19:00 -2°C° 0.1 mm 6 m/s 746 mmHg 85%
    20:00 -3°C° 0.1 mm 6 m/s 746 mmHg 85%
    21:00 -4°C° 0.1 mm 6 m/s 746 mmHg 86%
    22:00 -4°C° 0 mm 6 m/s 746 mmHg 86%
    23:00 -4°C° 0 mm 5 m/s 746 mmHg 86%

    26 Février, Mardi

    Heure Température Précipitation Vent Pression Humidité
    00:00 -5°C° 0 mm 5 m/s 746 mmHg 87%
    01:00 -5°C° 0.1 mm 5 m/s 746 mmHg 87%
    02:00 -5°C° 0.1 mm 6 m/s 745 mmHg 87%
    03:00 -5°C° 0.1 mm 6 m/s 745 mmHg 87%
    04:00 -5°C° 0.2 mm 6 m/s 745 mmHg 87%
    05:00 -5°C° 0.2 mm 6 m/s 745 mmHg 86%
    06:00 -5°C° 0.2 mm 6 m/s 744 mmHg 86%
    07:00 -5°C° 0 mm 6 m/s 744 mmHg 86%
    08:00 -5°C° 0 mm 6 m/s 744 mmHg 85%
    09:00 -5°C° 0 mm 6 m/s 744 mmHg 84%
    10:00 -5°C° 0.1 mm 6 m/s 744 mmHg 83%
    11:00 -5°C° 0.1 mm 6 m/s 743 mmHg 82%
    12:00 -4°C° 0.1 mm 6 m/s 743 mmHg 81%
    13:00 -4°C° 0.1 mm 6 m/s 743 mmHg 81%
    14:00 -4°C° 0.1 mm 6 m/s 742 mmHg 81%
    15:00 -4°C° 0.1 mm 5 m/s 741 mmHg 80%
    16:00 -4°C° 0.1 mm 5 m/s 741 mmHg 83%
    17:00 -4°C° 0.1 mm 4 m/s 741 mmHg 85%
    18:00 -4°C° 0.1 mm 3 m/s 740 mmHg 88%
    19:00 -4°C° 0.1 mm 3 m/s 740 mmHg 89%
    20:00 -5°C° 0.1 mm 3 m/s 739 mmHg 91%
    21:00 -5°C° 0.1 mm 3 m/s 739 mmHg 93%
    22:00 -6°C° 0 mm 3 m/s 739 mmHg 94%
    23:00 -6°C° 0 mm 3 m/s 739 mmHg 94%
    Voir plus